This is the latest recevied weather packets stored in our database for station/object N4DWK. If no packets are shown the sender has not sent any weather packets the latest 1 day(s).
| Time | Temp. | Humidity | Pressure | Rain* | Wind** | Luminosity | Snow |
|---|---|---|---|---|---|---|---|
| 1778110806 | 21.67° C | 81% | 1009.5 hPa | 0 mm | - | 14 W/m² | - |
| 1778109906 | 21.67° C | 80% | 1009.5 hPa | 0 mm | - | 18 W/m² | - |
| 1778109607 | 21.67° C | 80% | 1009.5 hPa | 0 mm | - | 16 W/m² | - |
| 1778109306 | 21.67° C | 80% | 1009.5 hPa | 0 mm | - | 18 W/m² | - |
| 1778108706 | 21.67° C | 80% | 1009.4 hPa | 0 mm | - | 37 W/m² | - |
| 1778108106 | 21.67° C | 79% | 1009.5 hPa | 0 mm | - | 51 W/m² | - |
| 1778107206 | 21.67° C | 79% | 1009.5 hPa | 0 mm | - | 40 W/m² | - |
| 1778106906 | 21.67° C | 79% | 1009.6 hPa | 0 mm | - | 39 W/m² | - |
| 1778106306 | 21.67° C | 78% | 1009.6 hPa | 0 mm | - | 47 W/m² | - |
| 1778105706 | 21.67° C | 78% | 1009.6 hPa | 0 mm | - | 56 W/m² | - |
| 1778105406 | 21.67° C | 78% | 1009.6 hPa | 0 mm | - | 53 W/m² | - |
| 1778105106 | 21.67° C | 78% | 1009.5 hPa | 0 mm | - | 49 W/m² | - |
| 1778103306 | 21.67° C | 78% | 1009.6 hPa | 0 mm | - | 86 W/m² | - |
| 1778103006 | 21.67° C | 78% | 1009.6 hPa | 0 mm | - | 100 W/m² | - |
| 1778101506 | 21.67° C | 80% | 1009.6 hPa | 0 mm | - | 113 W/m² | - |
| 1778100606 | 21.67° C | 82% | 1009.8 hPa | 0 mm | - | 98 W/m² | - |
| 1778100006 | 21.67° C | 83% | 1009.7 hPa | 0 mm | - | 171 W/m² | - |
| 1778099406 | 20.56° C | 85% | 1009.5 hPa | 0 mm | - | 149 W/m² | - |
| 1778099106 | 20.56° C | 85% | 1009.6 hPa | 0 mm | - | 86 W/m² | - |
| 1778097306 | 20° C | 86% | 1009.7 hPa | 0.25 mm | - | 84 W/m² | - |
| 1778096706 | 20° C | 86% | 1009.3 hPa | 0.25 mm | - | 72 W/m² | - |
| 1778095206 | 18.89° C | 88% | 1009.5 hPa | 0.25 mm | - | 86 W/m² | - |
| 1778094906 | 18.89° C | 89% | 1009.7 hPa | 0.25 mm | - | 81 W/m² | - |
| 1778094606 | 18.89° C | 89% | 1009.9 hPa | 0.25 mm | - | 84 W/m² | - |
| 1778094007 | 18.89° C | 90% | 1010.3 hPa | 0 mm | - | 76 W/m² | - |
* Rain latest hour (hover to see other rain measurements)
** Current wind speed in m/s (hover to see current wind gust speed)